Regional Weather Roundup
Issued by NWS

Home | Current Version | Previous Version | Graphics & Text | Print | Product List | Glossary On
Versions: 1 2 3 4 5 6 7 8 9 10 11 12 13 14 15 16 17 18 19 20 21 22 23 24 25 26 27 28 29 30 31 32 33 34 35 36 37 38 39 40 41 42 43 44 45 46 47 48 49 50
000
ASUS44 KMEG 220710
RWRTN
TENNESSEE HOURLY STATE WEATHER ROUNDUP
NATIONAL WEATHER SERVICE MEMPHIS TN
100 AM CST SUN JAN 22 2017

TNZ002-004-019-021-049-052-054-088>092-220800-
WEST TENNESSEE

CITY           SKY/WX    TMP DP  RH WIND       PRES   REMARKS
MEMPHIS INTL   TSTM      61  56  83 SE12      29.45R
NWS MEMPHIS      N/A     60 N/A N/A MISG        N/A
JACKSON        CLOUDY    57  52  83 E3        29.46F
DYERSBURG      CLOUDY    57  50  77 SE10      29.44F
UNION CITY     CLEAR     57  55  94 CALM      29.46S
PARIS          CLEAR     54  48  82 CALM      29.49S
HUNTINGDON     CLEAR     55  52  88 E5        29.47F
$$

TNZ008-025-027-028-033-062-065-066-220800-
NORTH MIDDLE TENNESSEE

CITY           SKY/WX    TMP DP  RH WIND       PRES   REMARKS
NASHVILLE      CLOUDY    55  49  80 SE8       29.52F
PORTLAND       CLEAR     54  50  87 SE5       29.53S
CLARKSVILLE    PTCLDY    51  47  86 E5        29.51F
SMYRNA         MOCLDY    49  48  97 CALM      29.53F
GALLATIN       CLEAR     54  50  87 NE6       29.54F
CROSSVILLE     CLOUDY    47  45  93 SE5       29.59F
$$

TNZ061-075-076-078-094-096-097-220800-
SOUTH MIDDLE TENNESSEE

CITY           SKY/WX    TMP DP  RH WIND       PRES   REMARKS
TULLAHOMA      CLEAR     54  52  94 SE5       29.52F
WINCHESTER     PTCLDY    55  54  94 SE8       29.52F
MCMINNVILLE    CLEAR     48  48 100 E3        29.53F
COLUMBIA       CLEAR     55  55 100 CALM      29.48S
SHELBYVILLE    CLEAR     55  54  94 E7        29.51F
$$

TNZ017-018-042-046-047-220800-
NORTHEAST TENNESSEE

CITY           SKY/WX    TMP DP  RH WIND       PRES   REMARKS
TRI CITIES     CLOUDY    48  47  96 CALM      29.67R FOG
ELIZABETHTON   CLOUDY    50  48  93 CALM      29.68S
$$

TNZ012-013-036-069-073-074-220800-
CENTRAL EAST TENNESSEE

CITY           SKY/WX    TMP DP  RH WIND       PRES   REMARKS
KNOXVILLE      CLOUDY    52  50  93 NE3       29.60F
OAK RIDGE      CLOUDY    52  49  89 CALM      29.62F
GATLINBURG     MOCLDY    46  46 100 E3        29.61F
MORRISTOWN     CLOUDY    50  50 100 CALM      29.62F
JACKSBORO      FOG       45  45 100 CALM      29.64F VSB 0
$$

TNZ083-085-099-220800-
SOUTHEAST TENNESSEE

CITY           SKY/WX    TMP DP  RH WIND       PRES   REMARKS
CHATTANOOGA    MOCLDY    53  51  93 N5        29.55F
$$

SKY/WX REPORTED AS FAIR MEANS FEW OR NO CLOUDS BELOW
12 THOUSAND FEET.





USA.gov is the U.S. government's official web portal to all federal, state and local government web resources and services.